{"data":{"norad_id":52105,"epoch":"2026-05-25T03:19:07.228704Z","epoch_age_seconds":60166,"freshness":"FRESH","line1":"1 52105U 22029T   26145.13827811  .00001861  00000+0  13491-3 0  9993","line2":"2 52105  53.2136  95.9293 0001497  39.7499 320.3602 15.08859075232320","mean_motion":15.08859075,"eccentricity":0.0001497,"inclination_deg":53.2136,"raan_deg":95.9293,"arg_perigee_deg":39.7499,"mean_anomaly_deg":320.3602,"bstar":0.00013491,"rev_number":23232,"period_min":95.436348155973,"perigee_km":538.6494869683,"apogee_km":540.72068290053,"semimajor_km":6917.8220849344,"source":"CELESTRAK","updated_at":"2026-05-25T13:38:17.071863Z"}}